Time,TemperatureF,DewpointF,PressureIn,WindDirection,WindDirectionDegrees,WindSpeedMPH,WindSpeedGustMPH,Humidity,HourlyPrecipIn,Conditions,Clouds,dailyrainin,SoftwareType,DateUTC
2013-01-20 00:02:00,18.0,6.0,-100.00,NW,320,15.0,18.0,59,-99.99,,,-99.99,,2013-01-20 06:02:00,
2013-01-20 00:12:00,18.0,6.0,-100.00,NW,320,15.0,18.0,59,-99.99,,,-99.99,,2013-01-20 06:12:00,
2013-01-20 00:22:00,18.0,6.0,-100.00,NW,320,15.0,18.0,59,-99.99,,,-99.99,,2013-01-20 06:22:00,
2013-01-20 00:33:00,17.0,5.0,-100.00,NW,320,13.0,14.0,57,-99.99,,,-99.99,,2013-01-20 06:33:00,
2013-01-20 00:42:00,17.0,5.0,-100.00,NW,320,13.0,14.0,57,-99.99,,,-99.99,,2013-01-20 06:42:00,
2013-01-20 00:53:00,17.0,4.0,-100.00,NW,315,17.0,20.0,57,-99.99,,,-99.99,,2013-01-20 06:53:00,
2013-01-20 01:02:00,17.0,4.0,-100.00,NW,315,17.0,20.0,57,-99.99,,,-99.99,,2013-01-20 07:02:00,
2013-01-20 01:12:00,17.0,3.0,-100.00,NW,320,17.0,21.0,55,-99.99,,,-99.99,,2013-01-20 07:12:00,
2013-01-20 01:22:00,17.0,4.0,-100.00,NW,325,13.0,15.0,57,-99.99,,,-99.99,,2013-01-20 07:22:00,
2013-01-20 01:32:00,16.0,3.0,-100.00,NW,310,16.0,21.0,57,-99.99,,,-99.99,,2013-01-20 07:32:00,
2013-01-20 01:42:00,16.0,3.0,-100.00,NW,310,16.0,21.0,57,-99.99,,,-99.99,,2013-01-20 07:42:00,
2013-01-20 01:52:00,15.0,2.0,-100.00,NW,315,20.0,24.0,56,-99.99,,,-99.99,,2013-01-20 07:52:00,
2013-01-20 02:02:00,15.0,2.0,-100.00,NW,315,20.0,24.0,56,-99.99,,,-99.99,,2013-01-20 08:02:00,
2013-01-20 02:12:00,15.0,2.0,-100.00,NW,310,16.0,19.0,56,-99.99,,,-99.99,,2013-01-20 08:12:00,
2013-01-20 02:22:00,15.0,2.0,-100.00,NW,325,14.0,18.0,56,-99.99,,,-99.99,,2013-01-20 08:22:00,
2013-01-20 02:32:00,15.0,2.0,-100.00,NW,315,14.0,17.0,56,-99.99,,,-99.99,,2013-01-20 08:32:00,
2013-01-20 02:42:00,15.0,2.0,-100.00,NW,315,14.0,17.0,56,-99.99,,,-99.99,,2013-01-20 08:42:00,
2013-01-20 02:52:00,15.0,2.0,-100.00,NNW,335,13.0,14.0,56,-99.99,,,-99.99,,2013-01-20 08:52:00,
2013-01-20 03:02:00,15.0,2.0,-100.00,NNW,335,13.0,14.0,56,-99.99,,,-99.99,,2013-01-20 09:02:00,
2013-01-20 03:12:00,14.0,1.0,-100.00,NW,320,13.0,14.0,56,-99.99,,,-99.99,,2013-01-20 09:12:00,
2013-01-20 03:22:00,14.0,2.0,-100.00,NW,310,11.0,16.0,57,-99.99,,,-99.99,,2013-01-20 09:22:00,
2013-01-20 03:33:00,14.0,1.0,-100.00,NW,315,12.0,14.0,57,-99.99,,,-99.99,,2013-01-20 09:33:00,
2013-01-20 03:42:00,14.0,1.0,-100.00,NW,315,12.0,14.0,57,-99.99,,,-99.99,,2013-01-20 09:42:00,
2013-01-20 03:52:00,13.0,1.0,-100.00,NW,315,9.0,11.0,57,-99.99,,,-99.99,,2013-01-20 09:52:00,
2013-01-20 04:02:00,13.0,1.0,-100.00,NW,315,9.0,11.0,57,-99.99,,,-99.99,,2013-01-20 10:02:00,
2013-01-20 04:12:00,13.0,1.0,-100.00,NW,325,11.0,13.0,57,-99.99,,,-99.99,,2013-01-20 10:12:00,
2013-01-20 04:22:00,13.0,1.0,-100.00,NW,325,10.0,12.0,58,-99.99,,,-99.99,,2013-01-20 10:22:00,
2013-01-20 04:32:00,14.0,2.0,-100.00,NNW,330,13.0,14.0,59,-99.99,,,-99.99,,2013-01-20 10:32:00,
2013-01-20 04:42:00,14.0,2.0,-100.00,NNW,330,13.0,14.0,59,-99.99,,,-99.99,,2013-01-20 10:42:00,
2013-01-20 04:52:00,13.0,1.0,-100.00,NW,325,16.0,19.0,58,-99.99,,,-99.99,,2013-01-20 10:52:00,
2013-01-20 05:02:00,13.0,1.0,-100.00,NW,325,16.0,19.0,58,-99.99,,,-99.99,,2013-01-20 11:02:00,
2013-01-20 05:12:00,13.0,1.0,-100.00,NNW,330,14.0,17.0,58,-99.99,,,-99.99,,2013-01-20 11:12:00,
2013-01-20 05:22:00,12.0,-1.0,-100.00,North,350,12.0,16.0,57,-99.99,,,-99.99,,2013-01-20 11:22:00,
2013-01-20 05:33:00,12.0,-1.0,-100.00,North,350,14.0,16.0,57,-99.99,,,-99.99,,2013-01-20 11:33:00,
2013-01-20 05:42:00,12.0,-1.0,-100.00,North,350,14.0,16.0,57,-99.99,,,-99.99,,2013-01-20 11:42:00,
2013-01-20 05:53:00,12.0,-1.0,-100.00,NNW,335,11.0,14.0,57,-99.99,,,-99.99,,2013-01-20 11:53:00,
2013-01-20 06:03:00,12.0,-1.0,-100.00,NNW,335,11.0,14.0,57,-99.99,,,-99.99,,2013-01-20 12:03:00,
2013-01-20 06:12:00,11.0,-1.0,-100.00,North,350,9.0,11.0,58,-99.99,,,-99.99,,2013-01-20 12:12:00,
2013-01-20 06:22:00,11.0,-1.0,-100.00,North,350,9.0,11.0,58,-99.99,,,-99.99,,2013-01-20 12:22:00,
2013-01-20 06:33:00,11.0,0.0,-100.00,North,350,10.0,13.0,59,-99.99,,,-99.99,,2013-01-20 12:33:00,
2013-01-20 06:43:00,11.0,0.0,-100.00,North,350,10.0,13.0,59,-99.99,,,-99.99,,2013-01-20 12:43:00,
2013-01-20 06:52:00,11.0,-1.0,-100.00,NNW,330,11.0,12.0,58,-99.99,,,-99.99,,2013-01-20 12:52:00,
2013-01-20 07:02:00,11.0,-1.0,-100.00,NNW,330,11.0,12.0,58,-99.99,,,-99.99,,2013-01-20 13:02:00,
2013-01-20 07:12:00,11.0,0.0,-100.00,NW,325,11.0,12.0,59,-99.99,,,-99.99,,2013-01-20 13:12:00,
2013-01-20 07:23:00,11.0,-1.0,-100.00,NW,305,8.0,9.0,59,-99.99,,,-99.99,,2013-01-20 13:23:00,
2013-01-20 07:33:00,11.0,0.0,-100.00,NNW,330,10.0,11.0,59,-99.99,,,-99.99,,2013-01-20 13:33:00,
2013-01-20 07:43:00,11.0,0.0,-100.00,NNW,330,10.0,11.0,59,-99.99,,,-99.99,,2013-01-20 13:43:00,
2013-01-20 07:52:00,11.0,-1.0,-100.00,NW,320,8.0,9.0,59,-99.99,,,-99.99,,2013-01-20 13:52:00,
2013-01-20 08:02:00,11.0,-1.0,-100.00,NW,320,8.0,9.0,59,-99.99,,,-99.99,,2013-01-20 14:02:00,
2013-01-20 08:12:00,11.0,-1.0,-100.00,NNW,340,10.0,11.0,58,-99.99,,,-99.99,,2013-01-20 14:12:00,
2013-01-20 08:22:00,12.0,0.0,-100.00,NNW,345,8.0,11.0,58,-99.99,,,-99.99,,2013-01-20 14:22:00,
2013-01-20 08:33:00,12.0,0.0,-100.00,NW,320,11.0,12.0,59,-99.99,,,-99.99,,2013-01-20 14:33:00,
2013-01-20 08:42:00,12.0,0.0,-100.00,NW,320,11.0,12.0,59,-99.99,,,-99.99,,2013-01-20 14:42:00,
2013-01-20 08:52:00,12.0,0.0,-100.00,NNW,340,11.0,11.0,58,-99.99,,,-99.99,,2013-01-20 14:52:00,
2013-01-20 09:03:00,12.0,0.0,-100.00,NNW,340,11.0,11.0,58,-99.99,,,-99.99,,2013-01-20 15:03:00,
2013-01-20 09:12:00,13.0,0.0,-100.00,NW,320,11.0,12.0,58,-99.99,,,-99.99,,2013-01-20 15:12:00,
2013-01-20 09:23:00,13.0,1.0,-100.00,NW,320,9.0,11.0,58,-99.99,,,-99.99,,2013-01-20 15:23:00,
2013-01-20 09:33:00,13.0,1.0,-100.00,NW,320,10.0,11.0,57,-99.99,,,-99.99,,2013-01-20 15:33:00,
2013-01-20 09:42:00,13.0,1.0,-100.00,NW,320,10.0,11.0,57,-99.99,,,-99.99,,2013-01-20 15:42:00,
2013-01-20 09:52:00,13.0,0.0,-100.00,NNW,335,11.0,11.0,56,-99.99,,,-99.99,,2013-01-20 15:52:00,
2013-01-20 10:03:00,13.0,0.0,-100.00,NNW,335,11.0,11.0,56,-99.99,,,-99.99,,2013-01-20 16:03:00,
2013-01-20 10:12:00,14.0,1.0,-100.00,NW,325,7.0,9.0,56,-99.99,,,-99.99,,2013-01-20 16:12:00,
2013-01-20 10:23:00,14.0,1.0,-100.00,NW,325,7.0,9.0,56,-99.99,,,-99.99,,2013-01-20 16:23:00,
2013-01-20 10:33:00,14.0,2.0,-100.00,NNW,340,11.0,13.0,57,-99.99,,,-99.99,,2013-01-20 16:33:00,
2013-01-20 10:42:00,14.0,2.0,-100.00,NNW,340,11.0,13.0,57,-99.99,,,-99.99,,2013-01-20 16:42:00,
2013-01-20 10:52:00,15.0,2.0,-100.00,NW,325,11.0,12.0,58,-99.99,,,-99.99,,2013-01-20 16:52:00,
2013-01-20 11:03:00,15.0,2.0,-100.00,NW,325,11.0,12.0,58,-99.99,,,-99.99,,2013-01-20 17:03:00,
2013-01-20 11:12:00,14.0,2.0,-100.00,NNW,340,7.0,8.0,59,-99.99,,,-99.99,,2013-01-20 17:12:00,
2013-01-20 11:22:00,14.0,3.0,-100.00,NW,325,7.0,8.0,61,-99.99,,,-99.99,,2013-01-20 17:22:00,
2013-01-20 11:33:00,14.0,4.0,-100.00,NNW,345,7.0,7.0,64,-99.99,,,-99.99,,2013-01-20 17:33:00,
2013-01-20 11:42:00,14.0,4.0,-100.00,NNW,345,7.0,7.0,64,-99.99,,,-99.99,,2013-01-20 17:42:00,
2013-01-20 11:52:00,14.0,4.0,-100.00,North,355,6.0,7.0,66,-99.99,,,-99.99,,2013-01-20 17:52:00,
2013-01-20 12:03:00,14.0,4.0,-100.00,North,355,6.0,7.0,66,-99.99,,,-99.99,,2013-01-20 18:03:00,
2013-01-20 12:12:00,14.0,5.0,-100.00,NNW,335,5.0,7.0,66,-99.99,,,-99.99,,2013-01-20 18:12:00,
2013-01-20 12:23:00,14.0,5.0,-100.00,NW,320,8.0,11.0,68,-99.99,,,-99.99,,2013-01-20 18:23:00,
2013-01-20 12:33:00,13.0,6.0,-100.00,NNW,335,9.0,10.0,71,-99.99,,,-99.99,,2013-01-20 18:33:00,
2013-01-20 12:42:00,13.0,6.0,-100.00,NNW,335,9.0,10.0,71,-99.99,,,-99.99,,2013-01-20 18:42:00,
2013-01-20 12:53:00,14.0,6.0,-100.00,NNW,330,9.0,11.0,72,-99.99,,,-99.99,,2013-01-20 18:53:00,
2013-01-20 13:02:00,14.0,6.0,-100.00,NNW,330,9.0,11.0,72,-99.99,,,-99.99,,2013-01-20 19:02:00,
2013-01-20 13:12:00,14.0,6.0,-100.00,NNW,330,10.0,12.0,72,-99.99,,,-99.99,,2013-01-20 19:12:00,
2013-01-20 13:22:00,14.0,6.0,-100.00,NNW,330,10.0,12.0,72,-99.99,,,-99.99,,2013-01-20 19:22:00,
2013-01-20 13:33:00,14.0,6.0,-100.00,NNW,330,11.0,11.0,72,-99.99,,,-99.99,,2013-01-20 19:33:00,
2013-01-20 13:42:00,14.0,6.0,-100.00,NNW,330,11.0,11.0,72,-99.99,,,-99.99,,2013-01-20 19:42:00,
2013-01-20 13:52:00,14.0,7.0,-100.00,NNW,345,11.0,12.0,72,-99.99,,,-99.99,,2013-01-20 19:52:00,
2013-01-20 14:03:00,14.0,7.0,-100.00,NNW,345,11.0,12.0,72,-99.99,,,-99.99,,2013-01-20 20:03:00,
2013-01-20 14:12:00,14.0,6.0,-100.00,NNW,330,14.0,14.0,72,-99.99,,,-99.99,,2013-01-20 20:12:00,
2013-01-20 14:22:00,14.0,6.0,-100.00,NNW,330,11.0,12.0,72,-99.99,,,-99.99,,2013-01-20 20:22:00,
2013-01-20 14:33:00,14.0,7.0,-100.00,NNW,340,7.0,9.0,72,-99.99,,,-99.99,,2013-01-20 20:33:00,
2013-01-20 14:42:00,14.0,6.0,-100.00,NNW,335,14.0,15.0,72,-99.99,,,-99.99,,2013-01-20 20:42:00,
2013-01-20 14:53:00,14.0,6.0,-100.00,NNW,340,9.0,11.0,72,-99.99,,,-99.99,,2013-01-20 20:53:00,
2013-01-20 15:03:00,14.0,6.0,-100.00,NNW,340,9.0,11.0,72,-99.99,,,-99.99,,2013-01-20 21:03:00,
2013-01-20 15:13:00,14.0,7.0,-100.00,NW,325,12.0,13.0,73,-99.99,,,-99.99,,2013-01-20 21:13:00,
2013-01-20 15:22:00,14.0,7.0,-100.00,NW,325,9.0,11.0,73,-99.99,,,-99.99,,2013-01-20 21:22:00,
2013-01-20 15:33:00,14.0,7.0,-100.00,NNW,340,9.0,11.0,73,-99.99,,,-99.99,,2013-01-20 21:33:00,
2013-01-20 15:43:00,14.0,7.0,-100.00,NNW,340,9.0,11.0,73,-99.99,,,-99.99,,2013-01-20 21:43:00,
2013-01-20 15:52:00,14.0,6.0,-100.00,NNW,340,9.0,11.0,73,-99.99,,,-99.99,,2013-01-20 21:52:00,
2013-01-20 16:03:00,14.0,6.0,-100.00,NNW,340,9.0,11.0,73,-99.99,,,-99.99,,2013-01-20 22:03:00,
2013-01-20 16:12:00,14.0,6.0,-100.00,NW,320,11.0,12.0,73,-99.99,,,-99.99,,2013-01-20 22:12:00,
2013-01-20 16:22:00,14.0,6.0,-100.00,NW,320,11.0,12.0,73,-99.99,,,-99.99,,2013-01-20 22:22:00,
2013-01-20 16:33:00,13.0,6.0,-100.00,NNW,330,12.0,13.0,74,-99.99,,,-99.99,,2013-01-20 22:33:00,
2013-01-20 16:43:00,13.0,6.0,-100.00,NNW,330,12.0,13.0,74,-99.99,,,-99.99,,2013-01-20 22:43:00,
2013-01-20 16:52:00,13.0,6.0,-100.00,NW,325,11.0,14.0,75,-99.99,,,-99.99,,2013-01-20 22:52:00,
2013-01-20 17:03:00,13.0,6.0,-100.00,NW,325,11.0,14.0,75,-99.99,,,-99.99,,2013-01-20 23:03:00,
2013-01-20 17:12:00,13.0,6.0,-100.00,NW,315,10.0,11.0,75,-99.99,,,-99.99,,2013-01-20 23:12:00,
2013-01-20 17:23:00,13.0,6.0,-100.00,NW,320,9.0,12.0,75,-99.99,,,-99.99,,2013-01-20 23:23:00,
2013-01-20 17:33:00,13.0,6.0,-100.00,NNW,335,11.0,12.0,74,-99.99,,,-99.99,,2013-01-20 23:33:00,
2013-01-20 17:42:00,13.0,6.0,-100.00,NNW,335,11.0,12.0,74,-99.99,,,-99.99,,2013-01-20 23:42:00,
2013-01-20 17:52:00,13.0,6.0,-100.00,NW,325,7.0,9.0,74,-99.99,,,-99.99,,2013-01-20 23:52:00,
2013-01-20 18:03:00,12.0,6.0,-100.00,NW,305,7.0,8.0,75,-99.99,,,-99.99,,2013-01-21 00:03:00,
2013-01-20 18:13:00,13.0,6.0,-100.00,NW,310,6.0,7.0,75,-99.99,,,-99.99,,2013-01-21 00:13:00,
2013-01-20 18:22:00,13.0,6.0,-100.00,WNW,295,9.0,11.0,75,-99.99,,,-99.99,,2013-01-21 00:22:00,
2013-01-20 18:33:00,12.0,6.0,-100.00,NW,305,6.0,8.0,75,-99.99,,,-99.99,,2013-01-21 00:33:00,
2013-01-20 18:42:00,12.0,6.0,-100.00,NW,305,6.0,8.0,75,-99.99,,,-99.99,,2013-01-21 00:42:00,
2013-01-20 18:53:00,12.0,6.0,-100.00,WNW,295,6.0,7.0,76,-99.99,,,-99.99,,2013-01-21 00:53:00,
2013-01-20 19:03:00,12.0,6.0,-100.00,WNW,295,6.0,7.0,76,-99.99,,,-99.99,,2013-01-21 01:03:00,
2013-01-20 19:12:00,12.0,6.0,-100.00,WNW,290,9.0,12.0,77,-99.99,,,-99.99,,2013-01-21 01:12:00,
2013-01-20 19:22:00,12.0,6.0,-100.00,WNW,290,9.0,12.0,77,-99.99,,,-99.99,,2013-01-21 01:22:00,
2013-01-20 19:33:00,12.0,6.0,-100.00,WNW,300,9.0,11.0,76,-99.99,,,-99.99,,2013-01-21 01:33:00,
2013-01-20 19:43:00,12.0,6.0,-100.00,WNW,300,9.0,11.0,76,-99.99,,,-99.99,,2013-01-21 01:43:00,
2013-01-20 19:52:00,11.0,5.0,-100.00,WNW,290,9.0,10.0,75,-99.99,,,-99.99,,2013-01-21 01:52:00,
2013-01-20 20:03:00,11.0,5.0,-100.00,WNW,290,9.0,10.0,75,-99.99,,,-99.99,,2013-01-21 02:03:00,
2013-01-20 20:12:00,11.0,5.0,-100.00,WNW,290,9.0,10.0,75,-99.99,,,-99.99,,2013-01-21 02:12:00,
2013-01-20 20:23:00,11.0,5.0,-100.00,West,280,7.0,8.0,76,-99.99,,,-99.99,,2013-01-21 02:23:00,
2013-01-20 20:33:00,10.0,4.0,-100.00,West,280,6.0,7.0,76,-99.99,,,-99.99,,2013-01-21 02:33:00,
2013-01-20 20:43:00,10.0,4.0,-100.00,West,280,6.0,7.0,76,-99.99,,,-99.99,,2013-01-21 02:43:00,
2013-01-20 20:53:00,10.0,4.0,-100.00,WNW,295,6.0,7.0,77,-99.99,,,-99.99,,2013-01-21 02:53:00,
2013-01-20 21:03:00,10.0,4.0,-100.00,WNW,295,6.0,7.0,77,-99.99,,,-99.99,,2013-01-21 03:03:00,
2013-01-20 21:12:00,10.0,5.0,-100.00,WNW,290,11.0,16.0,77,-99.99,,,-99.99,,2013-01-21 03:12:00,
2013-01-20 21:23:00,10.0,5.0,-100.00,WNW,285,8.0,9.0,77,-99.99,,,-99.99,,2013-01-21 03:23:00,
2013-01-20 21:33:00,10.0,4.0,-100.00,NW,305,16.0,19.0,77,-99.99,,,-99.99,,2013-01-21 03:33:00,
2013-01-20 21:43:00,10.0,4.0,-100.00,NW,305,16.0,19.0,77,-99.99,,,-99.99,,2013-01-21 03:43:00,
2013-01-20 21:52:00,9.0,3.0,-100.00,NW,305,16.0,19.0,75,-99.99,,,-99.99,,2013-01-21 03:52:00,
2013-01-20 22:03:00,9.0,3.0,-100.00,NW,305,16.0,19.0,75,-99.99,,,-99.99,,2013-01-21 04:03:00,
2013-01-20 22:12:00,9.0,3.0,-100.00,WNW,300,14.0,16.0,75,-99.99,,,-99.99,,2013-01-21 04:12:00,
2013-01-20 22:23:00,9.0,3.0,-100.00,WNW,300,13.0,15.0,75,-99.99,,,-99.99,,2013-01-21 04:23:00,
2013-01-20 22:32:00,9.0,2.0,-100.00,WNW,285,12.0,17.0,74,-99.99,,,-99.99,,2013-01-21 04:32:00,
2013-01-20 22:42:00,9.0,2.0,-100.00,WNW,285,12.0,17.0,74,-99.99,,,-99.99,,2013-01-21 04:42:00,
2013-01-20 22:52:00,8.0,2.0,-100.00,WNW,290,9.0,12.0,74,-99.99,,,-99.99,,2013-01-21 04:52:00,
2013-01-20 23:03:00,8.0,2.0,-100.00,WNW,290,9.0,12.0,74,-99.99,,,-99.99,,2013-01-21 05:03:00,
2013-01-20 23:12:00,8.0,2.0,-100.00,WNW,295,7.0,9.0,75,-99.99,,,-99.99,,2013-01-21 05:12:00,
2013-01-20 23:22:00,9.0,2.0,-100.00,WNW,285,14.0,17.0,75,-99.99,,,-99.99,,2013-01-21 05:22:00,
2013-01-20 23:33:00,8.0,1.0,-100.00,WNW,300,9.0,11.0,74,-99.99,,,-99.99,,2013-01-21 05:33:00,
2013-01-20 23:42:00,8.0,1.0,-100.00,WNW,300,9.0,11.0,74,-99.99,,,-99.99,,2013-01-21 05:42:00,
2013-01-20 23:52:00,8.0,1.0,-100.00,WNW,295,9.0,11.0,75,-99.99,,,-99.99,,2013-01-21 05:52:00,